Wind_Speed
7 8 8 7 7 7 6 5 4 5 6 6 5 4 4 4 5 6 7 7 8 8 9 10 11 11 12 13 14 15 16 18 19 20 20 21 22 22 23 23 24 24 24 24 24 24 24 23 21 19 20 21 21 22 22 23 23 21 21 21 23 24 23 23 21 20 21 21 19 17 17 17 16 15 14 14 14 14 13 13 13 12 11 11 11
6 7 7 7 6 6 6 5 4 4 5 6 5 5 4 4 5 6 6 7 8 9 9 10 11 12 12 13 14 15 15 16 17 18 19 20 21 21 22 23 23 22 22 22 22 22 23 23 22 21 21 21 21 22 23 24 24 23 22 22 23 24 24 24 22 20 20 20 19 17 17 17 18 16 15 14 14 14 14 14 14 13 12 12 11
5 5 5 6 5 5 5 5 4 4 4 4 4 5 5 5 5 6 7 7 8 9 9 10 11 12 12 13 13 14 14 15 17 18 18 19 19 20 21 21 21 21 20 20 20 21 22 23 22 22 22 22 23 24 24 24 24 24 23 23 23 24 24 23 23 21 20 20 19 18 18 17 18 18 16 15 15 15 15 14 14 14 13 13 12
4 3 4 5 4 3 3 3 3 3 3 3 3 3 4 5 6 6 7 7 8 9 10 11 11 11 11 11 12 13 14 15 16 16 17 17 18 19 20 21 22 21 21 21 20 21 22 23 23 23 23 22 22 23 24 24 24 24 24 24 24 24 25 24 22 21 21 21 21 20 19 18 19 18 17 17 16 16 15 15 15 15 14 13 13
3 3 2 2 2 2 2 1 2 3 3 4 4 4 4 5 6 6 7 7 8 9 9 9 9 8 9 10 12 14 15 15 16 16 17 17 19 20 21 22 22 23 23 22 21 21 22 23 24 25 25 23 21 22 23 24 24 24 24 24 23 24 25 25 23 21 21 21 21 21 21 20 19 18 18 17 17 17 16 16 15 15 15 14 14
3 2 1 1 1 2 2 2 3 4 5 5 5 5 5 5 6 6 6 7 7 7 7 7 8 8 10 11 13 15 15 16 17 17 18 19 20 21 22 22 23 23 24 24 23 23 23 24 26 27 26 24 22 22 23 24 24 24 24 24 24 23 24 25 25 23 21 21 20 20 21 21 19 18 18 17 17 17 17 17 16 16 16 15 15
1 2 1 1 2 2 3 4 5 5 6 6 6 6 6 6 6 5 5 5 5 5 6 7 9 10 12 13 15 15 16 17 18 18 19 20 21 22 23 23 24 24 24 24 25 25 25 26 27 28 28 27 25 24 25 25 25 25 25 26 25 24 25 25 26 25 23 22 21 20 21 21 19 18 18 18 18 18 18 18 17 17 17 16 16
1 2 1 2 2 3 4 5 6 7 7 7 6 6 6 6 5 5 4 3 3 4 5 8 10 11 12 13 14 15 16 17 18 19 19 20 22 23 24 25 25 25 25 25 26 27 27 28 29 30 30 29 28 27 27 27 26 26 26 26 26 26 26 27 27 26 25 24 23 22 21 20 20 20 20 19 20 20 19 18 18 17 17 17 17
2 2 2 2 3 4 4 5 6 7 7 7 6 6 5 4 4 4 3 3 3 4 6 9 10 11 11 12 13 14 15 16 18 19 21 22 23 25 26 26 27 27 27 27 27 28 29 30 31 31 32 31 31 30 29 29 28 28 27 27 27 26 27 28 28 27 27 26 24 24 21 19 21 21 20 21 21 21 20 19 19 18 18 18 18
3 3 3 3 3 4 5 6 6 7 7 7 6 5 5 5 4 3 3 3 3 5 8 9 10 10 11 11 12 14 15 17 19 21 23 24 25 26 27 28 28 28 28 28 28 28 29 31 32 33 33 33 33 32 32 31 30 30 29 28 28 28 28 28 29 28 28 27 25 25 22 21 22 19 18 20 21 22 21 19 20 20 18 18 19
4 4 4 4 5 5 6 6 6 6 6 6 6 5 5 4 3 2 2 3 4 6 8 10 10 11 12 12 13 15 17 19 21 22 24 25 26 27 28 28 29 29 29 29 29 28 28 29 31 32 33 33 33 33 33 32 31 30 30 30 30 29 29 29 29 29 29 29 27 25 24 24 23 19 18 19 20 23 22 21 22 21 20 19 20
5 4 4 5 5 6 6 6 6 5 5 5 5 5 5 4 3 2 2 3 4 6 8 10 10 11 12 13 15 16 18 20 21 23 24 25 26 27 28 28 29 29 29 29 29 28 28 28 29 30 31 31 32 32 32 32 31 30 29 29 29 29 29 29 29 29 30 30 29 26 25 25 24 21 20 20 20 22 23 23 24 23 22 21 21
5 4 4 5 5 6 6 5 4 4 4 4 5 5 5 5 5 4 4 4 5 6 8 9 10 10 12 14 16 17 19 20 22 24 25 26 27 28 28 29 29 29 29 29 29 29 29 28 29 29 30 30 31 32 32 32 31 31 30 29 28 28 28 28 28 28 29 30 31 29 26 26 25 24 22 21 21 22 23 25 26 26 25 22 21
5 4 5 5 5 5 5 4 3 3 3 4 5 6 6 7 7 7 7 7 7 8 9 10 11 12 13 15 17 18 19 21 22 24 25 26 27 28 28 29 29 29 29 29 29 30 30 30 30 30 31 31 31 32 32 32 32 31 31 30 29 28 27 27 26 26 27 29 31 31 28 26 26 26 24 23 23 24 25 26 28 28 25 23 23
5 5 5 5 5 5 5 4 4 4 4 5 6 7 8 9 9 9 9 9 9 9 9 10 11 12 14 16 18 19 20 21 22 24 25 26 27 28 29 29 29 29 30 30 31 31 31 31 31 31 31 32 32 32 33 33 32 32 32 31 30 30 29 28 27 25 25 26 28 30 30 28 27 27 26 24 25 26 27 27 27 26 25 24 24
6 6 6 6 6 6 5 5 5 5 6 7 8 9 10 11 11 11 11 11 11 10 10 11 12 13 15 17 18 19 20 22 23 24 25 26 27 28 29 29 29 30 30 30 31 31 31 31 32 32 32 33 33 34 34 34 33 33 32 32 31 31 30 30 29 27 25 25 26 27 29 29 28 28 27 25 25 28 29 28 24 23 25 26 26
7 7 6 6 6 7 6 6 6 7 8 9 9 10 11 12 12 13 13 13 12 12 12 12 13 15 16 18 18 19 20 21 22 24 25 27 28 28 29 29 29 29 30 31 31 31 31 31 32 33 33 33 34 35 35 35 34 33 33 32 32 31 31 31 30 29 28 26 26 26 27 28 28 28 28 26 25 27 27 25 23 24 26 26 27
7 7 7 7 7 7 7 8 8 8 9 10 11 12 13 13 13 14 14 14 14 14 14 14 15 16 17 18 19 19 20 21 22 23 24 26 28 29 29 29 29 30 30 31 31 31 31 32 32 33 33 34 34 35 36 36 36 35 35 34 33 32 31 31 31 30 30 28 27 26 26 27 27 28 28 28 26 26 24 23 25 27 26 26 28
8 8 8 7 7 8 8 9 9 10 11 12 13 14 14 14 14 14 14 15 15 15 15 16 16 17 18 18 19 20 21 22 22 23 23 24 26 28 30 29 29 29 30 30 31 32 32 33 33 33 34 35 35 35 36 37 37 37 37 36 36 34 33 32 31 31 31 30 29 27 27 27 26 27 28 29 28 26 25 24 26 28 29 27 28
7 8 8 8 8 8 9 10 11 12 13 14 15 15 15 15 15 15 15 16 16 16 16 16 17 17 18 18 19 20 21 22 23 24 24 23 22 23 26 29 29 29 29 30 30 31 31 32 33 33 33 34 35 36 36 37 38 37 37 37 37 36 35 34 33 32 31 31 31 29 28 28 27 27 27 29 30 29 27 26 25 29 32 29 27
8 8 8 8 9 10 10 12 13 14 15 15 16 16 16 17 16 16 16 16 16 16 16 16 17 17 18 19 20 21 23 24 25 25 25 24 22 20 20 23 26 28 28 30 31 31 31 31 32 32 33 33 34 35 35 36 37 38 38 37 36 36 36 35 34 33 32 32 32 31 30 29 28 28 28 28 31 31 30 29 27 28 28 30 32
9 9 9 10 10 11 12 13 14 15 16 17 17 17 18 18 17 17 17 16 16 15 16 16 17 18 19 20 21 23 23 24 24 24 24 23 22 21 20 21 24 26 28 29 31 32 32 32 32 32 33 33 34 34 35 35 36 37 37 38 37 36 36 35 35 34 33 32 32 32 31 30 29 29 29 29 30 32 33 32 30 29 28 30 34
10 11 12 12 13 13 14 15 16 16 17 17 18 18 18 18 18 17 17 16 15 15 16 16 17 18 19 21 22 23 23 23 23 23 22 22 22 22 23 24 26 27 28 29 30 31 32 32 33 33 33 33 34 35 35 35 36 36 36 37 38 37 36 36 35 34 34 33 32 32 32 32 31 30 31 30 30 31 33 34 33 32 30 30 32
13 14 14 15 15 16 16 16 17 17 17 17 18 19 19 18 17 17 16 15 15 15 16 16 17 19 20 21 22 23 23 23 23 23 22 22 23 24 24 25 26 27 28 29 29 30 31 32 32 33 34 34 34 35 36 36 36 36 36 37 38 38 37 37 37 36 35 34 32 32 32 33 32 32 32 32 31 31 32 34 35 34 34 32 33
15 15 16 16 17 17 17 17 17 17 17 18 19 19 18 18 17 16 15 15 15 16 16 17 19 20 21 22 23 23 23 23 23 23 23 23 23 24 24 25 25 26 27 28 29 29 30 31 32 32 33 34 34 35 36 37 37 38 38 38 38 38 39 39 39 38 36 35 34 33 32 33 33 33 33 33 33 32 32 34 36 36 36 35 34
16 17 17 17 17 17 17 17 17 17 18 19 19 18 17 16 16 15 15 15 15 16 17 19 20 21 23 23 23 23 23 22 22 22 23 24 24 25 24 24 24 25 26 28 30 30 29 30 31 32 33 34 35 35 36 37 38 39 39 40 40 40 40 40 41 41 39 38 37 35 33 33 33 34 34 34 35 34 33 34 35 36 37 37 36
17 17 17 17 17 17 17 17 17 18 18 18 17 17 16 16 15 15 15 15 16 17 18 20 21 23 23 24 24 23 23 22 22 23 24 25 26 27 27 26 25 24 24 26 29 30 30 30 30 31 33 35 36 36 37 38 39 39 40 41 41 41 41 41 42 43 42 41 40 38 36 34 34 34 35 35 36 36 35 35 35 36 36 37 37
17 17 17 17 17 17 17 17 17 17 17 17 16 16 15 15 15 15 15 16 17 18 19 21 22 23 24 24 24 23 23 23 23 25 26 27 28 29 30 30 30 29 26 25 27 29 30 31 31 31 32 35 36 36 37 37 38 39 40 41 41 41 42 42 42 43 44 43 42 41 39 38 36 35 36 36 37 38 37 36 36 36 36 36 37
17 17 16 17 17 17 17 16 16 15 15 15 15 15 15 14 15 15 15 16 17 19 21 22 23 24 24 24 24 23 23 24 25 26 27 28 29 30 31 31 32 33 32 30 29 30 31 33 35 35 33 34 35 36 36 37 38 39 40 41 42 42 42 42 42 42 43 43 43 42 41 40 39 37 36 37 37 38 39 37 37 36 36 36 37
16 16 16 16 16 16 16 15 14 14 14 14 14 14 14 14 14 15 16 17 18 20 22 23 24 24 24 23 22 23 23 25 26 27 27 28 29 30 31 32 33 34 35 34 33 34 35 35 37 39 38 37 37 37 37 38 39 40 41 42 42 42 42 41 40 40 40 41 42 42 42 42 41 40 38 38 38 39 40 40 38 37 36 36 37
15 15 15 16 15 15 14 13 13 13 13 14 14 14 13 13 14 15 16 18 20 21 22 23 23 23 22 22 22 23 24 25 26 27 27 28 29 30 32 33 34 34 35 36 35 35 37 38 38 39 41 40 40 41 40 39 40 41 41 42 41 41 40 38 37 36 36 37 38 40 41 42 42 42 40 39 39 39 40 41 40 38 38 37 37
14 15 15 14 14 13 12 12 12 13 13 13 13 13 13 13 14 15 17 19 20 21 22 22 22 21 21 21 22 23 24 25 26 26 27 28 29 30 31 32 34 35 35 37 37 35 35 38 39 39 41 42 42 43 43 43 43 43 41 40 39 38 37 36 35 34 34 34 35 36 39 41 42 43 42 40 39 40 40 41 42 41 39 38 38
14 14 13 13 12 12 12 12 12 12 12 12 12 12 12 13 15 16 18 19 20 21 21 20 20 20 20 21 22 23 24 24 25 25 26 27 29 29 30 31 33 35 36 37 38 37 35 36 38 40 41 43 44 45 46 46 45 45 42 39 37 36 35 34 33 31 31 31 32 33 36 39 41 43 43 42 40 40 41 41 43 43 41 40 39
13 12 12 12 11 11 11 12 12 12 12 11 12 12 12 14 15 17 19 19 20 20 19 19 19 19 20 21 22 22 23 24 24 25 26 27 28 28 30 31 32 34 36 37 38 39 38 38 39 40 41 43 45 46 48 49 48 47 44 40 36 34 34 32 30 28 27 28 29 31 34 37 40 42 43 43 42 40 41 42 43 45 44 43 41
12 12 12 11 11 11 11 12 12 11 11 11 11 12 13 14 16 17 18 19 19 19 18 18 19 20 20 21 21 22 22 23 24 25 26 26 27 28 29 30 32 33 34 36 38 39 40 40 41 42 43 44 46 47 49 50 49 48 46 42 38 35 33 31 28 26 25 26 28 31 34 36 40 42 42 44 43 41 41 42 43 45 46 46 44
12 12 12 11 11 11 12 12 12 11 11 11 11 12 13 15 16 17 18 18 18 17 17 18 19 19 20 20 21 21 22 22 23 24 25 26 27 28 29 30 31 32 34 36 37 39 41 42 42 43 45 46 47 48 50 51 51 49 47 43 40 37 33 30 28 27 26 28 29 32 34 36 39 42 42 43 44 42 41 41 43 45 47 48 47
12 12 12 11 12 12 12 12 11 11 10 11 11 12 13 15 16 17 17 17 17 16 17 17 18 19 19 19 20 20 21 22 23 24 25 26 27 27 28 29 31 32 34 36 37 39 41 43 44 44 45 46 47 49 51 53 53 50 47 44 42 40 35 31 30 30 29 30 32 34 35 35 38 41 43 43 43 43 41 40 41 44 47 49 49
13 12 12 12 12 12 12 11 11 10 10 10 11 12 14 15 16 17 17 16 15 16 16 17 17 18 18 19 19 20 21 22 22 23 24 25 27 27 28 29 31 33 35 36 38 39 41 43 44 45 45 47 49 50 52 53 55 53 49 46 43 43 40 35 31 30 29 31 34 35 35 35 36 39 41 42 43 43 42 39 38 41 45 48 50
14 13 13 13 13 12 12 11 10 10 10 11 12 13 13 14 15 16 15 15 15 15 16 16 17 17 17 18 19 20 21 22 22 23 24 24 26 27 28 30 32 34 36 37 39 40 41 43 45 46 47 48 50 52 53 54 55 55 53 50 48 47 47 42 36 31 30 31 33 34 33 34 35 36 39 41 42 42 43 41 37 37 41 46 49
14 14 14 13 13 12 11 10 10 10 10 11 12 13 13 14 15 14 14 14 14 14 15 15 16 16 17 17 18 19 20 21 22 23 24 24 25 27 29 31 34 35 37 38 40 41 42 43 45 46 48 49 51 53 55 56 57 57 56 55 54 54 53 48 39 34 33 33 33 33 33 33 33 33 34 36 39 42 43 43 41 37 37 41 45
15 15 14 13 13 12 11 10 10 10 10 11 12 12 13 13 13 13 13 13 13 13 14 14 15 15 16 17 18 19 20 21 22 23 24 25 26 29 31 33 35 36 37 39 41 42 43 44 46 48 49 50 53 55 57 59 60 59 58 57 58 59 56 47 37 33 36 37 36 36 36 34 32 30 30 32 35 39 41 42 43 42 40 39 41
16 15 14 13 13 12 11 10 10 10 11 11 11 12 12 13 12 12 12 12 12 13 13 13 14 14 15 16 17 18 19 20 21 22 23 25 27 29 32 34 35 37 38 40 41 42 43 45 47 49 51 52 54 56 58 60 60 59 60 61 62 60 54 44 35 32 36 39 39 37 36 35 33 29 27 28 30 33 37 39 42 44 44 43 41
16 15 14 13 13 12 11 10 10 11 11 11 11 12 12 12 12 12 11 11 11 12 12 12 13 13 14 15 16 17 18 18 20 22 23 25 27 29 31 33 35 37 39 40 41 42 44 45 47 49 52 53 54 56 59 60 60 61 61 62 62 59 52 45 40 37 39 41 42 38 35 34 34 30 27 27 28 28 31 34 38 42 45 46 45
16 15 14 14 13 12 11 11 10 11 11 10 11 11 11 11 11 11 10 10 11 11 11 12 12 12 13 14 15 16 17 18 19 21 23 25 26 28 30 31 33 35 37 39 41 43 44 46 47 49 51 53 54 56 59 61 62 62 62 62 61 58 53 48 46 44 45 47 47 44 38 34 35 32 28 27 27 27 27 29 32 36 40 44 46
17 15 15 14 14 13 12 11 11 11 10 10 11 11 10 10 10 9 9 10 10 10 10 10 11 12 13 13 14 15 16 18 20 21 23 24 25 27 28 30 31 33 34 36 38 41 43 45 47 48 50 52 54 55 58 61 62 63 63 63 62 59 55 51 48 46 48 50 50 48 42 37 36 34 29 27 26 26 26 26 28 30 35 39 43
17 16 16 15 14 13 12 11 11 11 10 10 10 10 10 9 9 9 9 8 9 9 9 9 10 11 12 13 14 15 16 18 20 22 23 23 25 26 27 29 30 32 34 35 36 39 42 44 46 48 49 50 52 54 56 58 61 62 63 63 63 60 55 50 47 45 45 46 46 45 41 37 37 36 31 28 27 25 26 27 27 28 30 34 38
18 17 17 16 15 14 13 12 11 10 10 10 10 9 9 8 8 8 8 7 8 8 8 8 9 10 11 12 14 15 17 18 20 22 23 24 25 26 27 28 29 31 33 35 36 39 41 43 45 46 47 48 49 51 54 56 58 60 60 59 60 59 55 49 46 45 45 44 44 44 41 37 37 37 34 30 29 27 27 28 29 28 28 30 33
18 17 17 16 15 14 13 12 12 11 11 11 10 9 8 7 7 7 7 6 6 6 6 7 9 10 11 12 13 15 17 19 20 22 23 24 25 26 27 28 29 30 32 33 35 38 39 41 43 44 45 46 47 49 51 54 56 58 58 57 58 59 58 54 50 49 49 48 46 45 43 37 35 37 34 30 28 27 26 28 30 28 27 28 30
18 18 17 16 15 14 14 13 12 12 12 11 10 9 7 6 6 6 5 5 5 5 5 7 8 10 11 12 13 15 17 19 20 22 23 24 25 26 27 28 29 30 31 32 34 36 37 39 40 42 43 44 45 46 49 52 55 57 59 59 59 60 61 60 58 55 54 54 51 48 45 38 33 35 34 29 25 23 23 25 28 28 27 27 28
19 19 18 17 16 15 14 14 13 12 12 11 9 8 7 6 6 5 5 5 5 5 5 6 8 9 11 12 13 15 17 19 20 21 23 24 25 27 27 29 30 31 32 33 34 35 37 38 39 40 42 43 44 46 48 50 53 56 58 59 60 60 61 62 62 60 58 58 57 54 47 39 34 34 35 31 25 22 21 22 24 26 27 26 26
20 19 19 18 17 16 15 14 13 13 12 11 10 8 7 6 6 5 5 5 5 5 5 6 8 9 11 12 13 15 17 18 20 21 23 24 26 27 28 30 31 32 34 36 37 37 38 39 40 41 42 44 45 46 48 50 51 54 56 58 59 59 60 61 62 63 62 61 61 58 50 41 36 35 37 38 33 25 21 21 21 24 25 25 25
Wind_Direction
288 287 285 283 280 282 289 296 300 304 308 309 309 309 304 300 295 291 289 290 291 290 292 295 296 298 298 300 300 299 298 297 297 298 299 300 302 305 307 310 312 315 318 319 319 317 314 315 319 322 319 316 318 320 322 323 324 326 326 324 325 326 327 322 313 304 301 303 302 296 286 281 279 277 276 276 276 275 274 273 273 273 272 270 265
275 280 288 292 290 295 304 311 315 308 308 310 311 311 308 302 295 292 293 294 295 294 296 297 297 297 297 296 294 293 294 296 299 302 304 308 310 313 314 315 317 319 319 319 319 317 315 316 318 320 319 318 320 321 322 323 324 325 325 325 328 331 331 329 324 312 301 302 304 297 288 282 280 277 274 272 272 272 270 271 270 270 269 267 264
263 275 298 308 306 313 322 321 317 310 304 302 303 304 301 298 294 295 296 296 296 296 295 293 291 291 292 293 294 297 302 307 310 312 314 315 317 318 318 319 319 319 317 317 317 316 314 314 315 316 316 318 320 318 318 319 320 322 324 327 331 332 330 330 330 322 309 303 301 297 291 285 281 277 275 271 269 269 268 267 266 266 265 263 262
281 295 327 328 321 330 336 324 311 304 293 279 275 276 277 281 284 286 287 288 287 284 283 283 284 287 293 299 305 311 316 318 320 321 321 321 322 322 322 322 321 320 319 317 316 315 314 313 314 314 314 316 316 314 312 314 317 320 323 326 330 329 327 329 331 331 323 312 305 298 294 288 281 275 274 272 268 266 266 265 264 263 263 261 259
300 311 350 339 320 326 327 315 288 272 265 261 260 259 261 267 271 274 276 280 282 282 283 283 286 294 305 314 318 322 325 327 328 329 329 328 327 326 324 323 322 322 321 319 317 314 314 313 314 314 315 314 313 311 310 313 315 316 318 320 323 324 324 326 327 329 330 325 314 301 295 290 282 272 270 271 267 265 264 264 262 260 260 259 256
303 305 321 302 304 313 303 292 277 268 267 273 281 283 283 283 287 291 294 297 295 295 296 293 300 313 322 326 328 331 332 333 334 334 333 331 329 327 324 322 321 321 320 319 317 315 313 312 312 313 314 313 311 309 309 311 311 311 313 315 316 318 318 320 321 323 327 329 324 312 300 291 283 272 268 269 266 263 262 262 261 259 257 257 255
325 327 320 294 300 305 288 281 278 280 286 291 298 301 303 306 308 311 312 310 305 304 304 304 313 323 329 331 334 335 335 336 336 335 333 330 327 324 322 320 318 318 317 316 315 314 313 311 312 312 312 312 310 309 308 309 309 308 310 310 312 312 312 314 317 320 322 323 324 319 310 301 292 276 265 266 263 259 258 259 259 257 256 254 253
334 352 345 312 311 305 287 282 284 288 294 298 303 306 311 316 322 327 327 320 312 306 304 307 315 323 328 332 335 336 336 336 334 332 330 327 324 321 318 316 315 314 313 313 312 312 312 311 311 310 310 309 308 308 308 308 307 306 307 308 309 310 309 310 312 316 316 316 317 317 318 311 299 284 268 264 263 257 252 253 255 254 254 253 251
298 323 339 337 327 312 297 291 291 294 298 300 302 309 320 333 346 351 348 336 317 309 306 308 317 324 329 334 336 336 335 333 332 330 328 325 322 319 316 315 313 312 311 311 310 310 310 309 309 308 307 306 305 305 305 305 304 304 304 305 306 306 306 307 308 310 310 311 312 313 315 305 295 289 274 265 265 262 254 250 252 251 251 251 249
280 295 316 327 317 308 299 294 294 297 300 304 312 325 344 2 14 11 352 334 311 306 307 311 321 328 332 336 336 336 335 333 332 330 328 325 322 319 316 315 313 312 311 310 309 308 308 307 307 306 305 304 303 303 302 302 301 301 301 301 302 302 302 302 303 304 304 305 305 307 309 303 301 300 287 275 268 264 261 254 252 250 249 249 248
279 289 304 310 309 306 301 300 302 304 306 313 327 340 354 9 19 8 329 312 300 300 303 309 320 327 330 334 335 336 335 333 331 329 327 325 322 320 317 316 315 313 312 311 310 309 308 306 305 304 304 303 302 302 302 301 301 300 298 297 297 297 297 297 297 298 298 299 299 300 300 301 305 303 296 290 276 266 264 258 253 250 247 247 246
291 294 302 304 306 306 304 306 308 310 313 322 336 345 351 357 359 342 310 298 297 296 298 304 312 320 325 329 332 333 333 332 330 328 326 324 323 321 319 318 317 316 315 314 313 312 310 309 307 305 305 305 305 305 305 305 304 302 300 298 296 295 295 294 293 293 294 294 293 294 294 296 300 297 296 295 283 271 264 258 254 251 247 245 245
295 296 302 303 305 309 311 315 318 320 323 329 338 342 342 343 339 329 319 308 303 299 298 302 307 314 321 327 329 330 332 331 328 326 325 324 323 322 320 319 318 317 316 315 314 312 312 311 310 309 308 308 308 307 307 308 307 307 306 304 301 299 296 294 292 290 290 290 290 290 289 289 291 292 292 291 285 276 267 260 256 251 246 243 243
289 296 301 306 311 315 317 321 326 328 329 330 334 335 333 332 327 321 317 312 307 304 302 302 306 313 320 325 326 327 328 327 325 324 324 324 322 320 319 318 317 316 315 315 314 313 313 312 312 311 310 310 309 308 308 308 308 308 308 307 306 304 302 298 295 292 288 286 286 287 286 284 284 285 286 287 284 277 267 258 256 254 249 244 243
291 299 303 310 315 318 316 316 323 324 323 324 327 328 326 323 320 315 312 308 306 303 300 300 304 311 317 321 322 323 323 323 323 323 322 321 320 318 317 316 316 316 315 314 314 314 314 313 312 312 312 311 311 310 309 309 309 309 308 308 308 306 305 302 300 297 292 287 284 283 283 280 279 279 280 283 281 277 269 256 252 256 254 248 244
294 300 301 308 312 313 313 313 318 317 316 320 322 323 321 317 315 311 307 304 303 302 299 299 301 306 312 316 318 319 320 321 323 322 320 318 316 315 315 315 315 314 314 313 314 314 315 315 314 314 314 314 313 312 312 312 312 311 310 309 309 307 306 304 302 300 296 292 287 283 281 279 277 276 276 278 277 279 273 253 246 260 260 252 246
293 294 294 300 305 306 308 310 313 313 314 317 318 317 314 312 309 307 304 302 302 302 300 299 301 305 309 312 313 314 316 319 320 318 316 315 315 314 314 314 314 314 315 315 316 317 317 317 316 315 315 314 313 313 312 312 312 311 310 309 308 306 305 304 302 301 298 294 290 286 283 279 277 274 273 274 273 278 274 249 244 266 267 255 246
289 287 288 294 301 305 306 309 312 313 314 314 314 312 310 308 306 304 303 302 302 302 301 301 301 303 306 309 311 312 314 315 315 315 315 316 316 315 315 315 315 316 317 317 317 318 318 317 316 315 314 313 312 311 310 310 311 310 310 309 307 305 304 302 301 300 298 296 292 288 285 281 278 273 270 269 268 272 273 256 252 265 269 264 252
288 285 287 290 297 303 305 309 312 312 313 312 312 310 308 306 304 303 303 303 304 304 302 301 299 301 305 308 310 310 312 312 312 313 314 315 317 317 316 315 315 316 316 316 317 317 317 316 316 315 314 313 312 311 310 310 310 311 311 310 310 308 305 303 301 299 297 296 293 289 285 282 279 274 268 266 264 264 265 263 259 258 256 258 261
290 288 289 292 296 302 306 309 310 310 310 310 310 308 307 305 304 303 304 305 305 304 301 300 301 304 306 308 309 310 311 312 312 313 314 315 315 316 315 314 315 316 316 316 315 315 315 314 314 313 312 312 311 310 309 309 309 309 309 309 309 308 307 305 302 300 297 295 294 291 287 283 279 275 270 265 263 260 259 260 260 257 246 242 257
298 298 297 298 300 303 306 307 308 307 307 307 307 307 305 304 303 304 305 305 304 302 301 303 305 307 309 310 311 312 313 314 315 315 315 315 315 313 311 311 313 315 316 317 317 316 316 315 315 315 314 313 312 311 310 308 307 307 307 306 306 306 305 305 303 301 298 295 293 290 288 284 280 276 272 267 263 260 258 257 256 259 252 242 248
298 298 298 299 301 303 304 304 304 303 304 305 305 304 302 302 303 304 304 303 303 303 305 307 309 311 312 313 314 315 316 317 317 316 316 317 318 318 317 316 317 318 318 318 317 316 317 317 318 318 317 316 315 314 312 311 309 308 307 306 306 305 304 303 302 301 298 295 292 290 287 284 280 277 273 269 265 261 258 256 253 253 253 247 245
290 293 295 297 300 301 301 300 300 302 303 304 302 301 301 301 303 303 302 302 304 306 309 311 312 313 313 314 315 316 316 316 315 316 317 319 321 323 324 324 324 322 320 319 318 318 319 319 320 320 319 318 317 316 315 314 312 311 310 308 308 307 305 303 301 300 298 295 292 289 286 283 280 277 273 270 266 262 259 256 253 250 250 250 248
289 290 293 296 298 298 298 298 300 302 302 301 300 300 301 302 301 300 300 303 306 309 311 312 313 314 315 315 315 315 316 316 318 319 321 323 325 326 327 326 324 322 321 321 323 323 323 323 323 323 322 320 320 318 317 316 315 314 313 311 310 308 307 304 302 300 297 295 292 289 285 283 280 276 273 270 266 262 260 257 254 250 249 249 249
290 290 292 294 295 295 296 298 299 300 300 299 299 300 300 299 298 299 302 307 310 312 313 314 315 316 315 315 316 318 319 321 323 324 325 326 328 328 326 325 325 326 326 326 326 327 327 326 325 324 324 323 322 321 320 319 318 317 315 314 312 310 308 306 303 301 298 295 292 289 285 281 279 276 272 270 267 262 259 257 255 252 250 250 249
288 288 289 289 290 292 295 298 299 299 299 298 298 299 299 298 300 304 309 312 314 315 317 317 317 317 317 318 320 322 324 325 327 327 327 328 327 326 326 327 329 331 332 330 328 328 328 328 327 325 325 324 323 323 322 320 319 318 316 315 313 311 308 306 304 302 299 296 293 289 285 280 277 275 272 269 266 263 259 256 255 254 252 252 251
284 284 284 285 288 292 295 297 298 298 297 297 298 299 300 301 305 310 313 315 317 318 319 319 318 319 320 323 324 326 327 328 328 329 329 329 329 328 329 331 332 334 335 333 330 329 329 329 329 328 326 325 325 324 323 321 319 318 316 314 313 311 308 306 304 302 299 297 293 290 286 281 276 273 271 268 265 263 260 256 254 253 252 251 250
280 281 282 286 290 293 295 295 295 295 296 298 300 300 302 305 309 313 315 317 319 320 320 320 321 323 324 325 327 328 329 330 331 333 332 332 332 333 334 335 335 335 337 338 334 332 331 330 329 330 330 327 326 326 324 323 320 319 317 315 313 311 309 306 304 301 299 297 294 290 286 282 277 272 269 267 265 263 261 257 254 252 251 249 248
279 281 284 288 291 292 292 292 293 296 298 299 300 300 303 308 311 314 316 318 321 321 321 323 325 326 326 327 328 330 332 334 335 335 335 335 337 337 337 336 336 336 337 340 340 337 336 334 331 332 333 331 328 327 327 326 324 322 319 317 315 312 310 308 305 302 299 297 295 292 287 283 278 273 268 265 264 263 261 258 255 252 249 247 246
279 283 286 288 289 289 289 292 296 299 299 298 299 301 305 310 313 315 317 319 321 323 325 326 326 327 327 329 331 333 335 336 336 336 338 339 339 339 338 337 338 338 337 340 343 341 338 338 336 333 334 334 332 331 331 330 328 326 324 321 318 316 313 310 307 303 300 297 295 293 289 285 280 274 268 264 261 261 260 259 256 253 250 246 243
282 284 285 286 287 288 291 296 299 298 297 297 299 303 308 312 315 316 318 321 323 325 326 327 327 328 329 331 334 337 337 337 338 340 340 340 340 340 340 339 338 339 339 339 342 343 340 338 338 336 334 335 335 333 333 334 332 330 329 326 322 319 316 312 309 305 301 298 295 293 290 287 283 277 270 264 260 258 257 258 257 253 250 247 242
283 283 284 285 288 291 295 298 297 295 296 297 300 305 311 315 316 317 320 323 325 326 326 327 328 330 332 335 337 338 338 339 341 341 341 341 341 341 341 340 339 340 340 339 340 343 343 339 338 338 336 336 336 335 334 335 335 334 333 330 326 322 319 315 311 307 303 298 294 291 289 286 284 280 274 266 260 256 254 254 255 254 250 246 242
282 282 285 287 290 293 294 293 292 293 295 297 301 308 313 314 316 318 321 323 324 325 327 329 331 333 336 338 338 338 339 341 342 341 341 342 342 341 341 341 341 340 339 339 339 341 344 342 340 339 338 337 338 337 335 336 336 336 335 334 329 325 321 317 314 309 303 297 293 289 286 284 282 280 277 271 262 256 253 251 251 252 250 246 243
282 284 286 287 288 289 287 287 288 291 294 299 305 309 312 314 315 318 320 322 325 327 329 331 333 336 338 339 339 340 341 342 341 341 342 342 342 342 342 342 342 341 340 340 340 341 343 344 342 341 340 340 339 339 337 337 337 338 338 337 333 328 325 322 319 313 305 297 291 286 283 281 280 279 277 275 268 259 253 249 248 249 249 246 242
283 283 283 283 282 282 282 283 287 291 296 302 305 307 310 313 315 317 320 324 327 329 331 333 336 338 339 339 340 341 342 342 342 342 342 343 342 342 343 343 342 342 342 342 343 343 344 345 344 343 342 342 341 340 338 338 339 340 340 338 336 334 332 330 326 319 310 300 290 283 279 277 277 277 277 276 273 265 256 249 246 245 246 246 243
280 279 278 277 277 277 278 282 286 291 296 299 300 304 308 312 315 318 323 327 329 330 332 335 338 339 339 340 340 341 342 342 342 343 343 342 343 343 343 342 342 344 345 346 347 346 345 345 346 346 344 343 342 341 340 339 341 342 341 339 339 340 339 338 333 324 314 301 289 279 275 274 273 274 275 275 275 272 264 254 247 243 243 244 243
275 274 273 272 272 272 275 280 284 289 292 293 296 301 308 313 316 320 325 328 329 331 334 337 338 339 339 340 341 341 342 342 343 343 343 341 342 343 342 342 344 346 348 349 349 349 348 347 346 347 346 343 342 343 342 341 342 344 343 342 343 344 343 342 338 328 314 298 286 277 272 270 269 270 271 272 272 273 270 262 252 245 242 242 243
270 269 267 265 265 267 271 276 280 284 286 288 295 302 310 316 319 322 326 328 329 332 335 338 338 339 340 341 342 342 342 343 343 342 342 342 342 341 342 344 347 349 350 351 351 351 350 348 347 347 347 345 344 344 345 344 344 345 345 343 345 348 348 346 341 329 312 297 286 280 276 272 269 267 267 268 268 269 270 267 258 249 243 240 241
264 262 260 259 260 263 268 272 276 278 281 287 297 305 312 317 320 323 325 326 329 333 336 338 339 340 342 342 343 343 343 343 342 342 342 342 342 342 344 348 350 351 352 352 353 353 351 350 348 347 348 347 346 346 346 345 346 347 347 345 346 350 351 350 344 329 313 299 290 288 289 284 276 271 267 265 264 264 266 267 263 255 247 242 240
257 255 255 255 258 261 265 268 272 274 280 290 299 306 313 318 320 321 322 325 330 334 336 338 339 341 344 344 344 344 343 343 342 342 343 343 344 346 349 351 352 353 354 353 354 354 352 351 349 348 349 349 347 347 347 347 348 350 350 348 348 351 352 352 350 336 320 312 309 313 315 306 296 288 278 270 265 262 261 263 263 260 253 246 241
252 251 251 253 256 260 262 264 267 273 282 292 299 308 314 318 318 318 320 326 331 334 336 338 341 344 345 346 346 345 345 344 345 345 345 346 348 351 352 353 353 353 355 355 354 353 353 352 350 350 351 351 349 348 348 350 350 351 351 351 352 353 352 352 356 347 333 331 337 342 340 327 316 308 296 282 272 266 261 259 258 258 256 251 246
248 248 249 252 255 256 258 261 265 273 283 292 300 309 313 315 315 315 320 327 331 334 336 339 343 346 347 349 349 348 347 347 348 348 349 352 354 355 354 354 354 354 355 355 354 353 353 353 353 352 352 352 352 350 350 351 351 352 353 354 355 356 354 352 358 355 344 342 348 354 351 338 328 324 313 299 286 276 269 263 258 255 253 252 249
245 246 248 251 252 253 255 257 263 273 283 291 300 308 310 310 311 314 321 328 330 333 338 342 345 348 351 353 353 352 351 352 353 353 355 357 358 357 356 356 355 354 354 354 353 353 354 355 355 353 352 353 353 352 350 351 352 354 356 356 357 359 358 354 354 353 348 345 347 353 353 340 330 327 321 310 299 289 280 272 264 258 254 251 248
244 244 246 248 249 250 251 254 263 273 281 290 299 304 306 305 309 314 322 326 329 335 341 344 348 352 356 358 357 357 358 358 0 1 1 0 360 359 358 357 357 356 355 354 353 353 354 355 356 355 354 353 354 353 352 352 354 355 357 358 358 1 1 356 352 351 350 347 346 349 351 341 328 323 319 311 304 297 289 280 271 264 258 253 249
243 244 246 246 246 247 248 253 264 272 279 289 295 298 300 302 307 315 321 324 330 339 343 345 352 358 0 2 2 4 5 6 7 7 6 4 2 0 359 358 358 357 356 355 354 354 355 356 357 356 355 354 354 354 353 353 355 356 357 358 359 1 1 358 353 350 350 348 346 346 347 341 329 322 318 310 302 297 290 282 274 266 260 256 251
242 243 243 244 243 243 245 252 262 268 275 285 289 291 294 299 305 312 317 323 333 340 342 348 357 2 4 4 6 8 10 11 12 11 9 6 4 2 0 360 359 357 356 356 356 356 357 357 357 357 356 356 356 356 355 355 356 357 358 358 358 360 0 359 356 353 350 347 344 344 345 341 329 322 319 312 303 295 288 280 272 266 261 257 253
241 243 243 243 241 240 245 253 258 263 270 278 281 283 288 295 301 308 313 323 333 336 340 352 1 4 5 6 8 10 11 12 13 12 10 9 6 4 2 1 0 358 357 357 357 358 359 359 358 357 357 357 357 357 356 356 358 359 358 357 357 358 358 358 0 359 353 347 342 340 342 341 332 326 324 317 308 300 292 284 276 268 261 257 254
240 242 241 241 239 238 245 251 252 257 266 270 272 276 281 287 294 300 308 319 327 329 339 357 3 3 4 6 9 11 11 12 12 10 9 9 8 6 4 2 1 1 359 358 359 360 360 360 359 358 357 358 358 359 358 358 359 360 359 358 358 359 358 358 0 0 355 349 344 340 337 335 332 332 332 330 321 309 296 287 281 275 267 259 255
237 239 238 236 235 238 244 246 247 254 262 263 265 270 274 278 284 289 300 311 315 321 340 358 2 360 1 4 7 10 11 10 9 8 7 7 7 6 4 2 1 1 360 0 2 2 1 0 360 359 358 358 360 1 1 1 1 2 0 359 359 359 358 358 359 357 354 351 349 345 340 333 328 330 335 341 341 327 307 290 281 278 273 264 257
234 236 235 232 232 237 241 242 245 252 258 258 260 263 264 268 272 277 288 297 299 311 338 354 359 358 358 1 5 9 9 7 5 4 4 4 5 4 3 2 1 360 359 1 3 3 1 1 360 360 359 360 1 4 5 4 4 5 3 1 359 358 358 358 357 355 354 354 353 350 347 340 333 329 328 332 340 338 323 303 284 275 272 268 261
233 234 233 231 231 235 237 238 244 251 254 254 255 255 255 257 260 266 275 280 287 305 332 347 354 355 354 356 2 6 6 4 2 1 0 1 2 1 1 1 360 359 359 0 1 1 1 0 359 360 0 1 3 5 7 7 7 8 7 3 360 359 358 358 356 354 354 355 355 352 349 346 341 336 332 330 332 334 332 320 298 277 267 264 262
Height
3177 3177 3177 3177 3177 3178 3178 3178 3177 3178 3178 3178 3178 3178 3178 3178 3178 3179 3179 3178 3178 3178 3177 3177 3176 3175 3175 3174 3174 3173 3172 3172 3171 3170 3170 3169 3168 3167 3165 3164 3162 3161 3160 3159 3158 3157 3156 3155 3156 3157 3155 3153 3152 3150 3148 3147 3145 3145 3144 3142 3141 3140 3139 3138 3136 3135 3134 3135 3135 3134 3133 3133 3132 3132 3131 3131 3131 3131 3131 3131 3130 3130 3130 3130 3130
3176 3176 3176 3176 3177 3177 3178 3178 3177 3177 3178 3178 3178 3178 3178 3178 3178 3178 3178 3178 3177 3177 3176 3175 3175 3174 3174 3173 3173 3172 3171 3171 3170 3169 3168 3167 3166 3165 3163 3162 3161 3160 3159 3158 3157 3156 3155 3154 3155 3155 3154 3152 3151 3149 3147 3146 3145 3144 3143 3142 3141 3139 3138 3136 3134 3133 3132 3132 3132 3132 3131 3131 3130 3130 3130 3129 3129 3129 3129 3129 3129 3129 3129 3128 3128
3176 3176 3176 3176 3176 3177 3177 3177 3177 3177 3177 3177 3177 3177 3177 3177 3177 3177 3177 3177 3177 3176 3175 3175 3174 3173 3173 3172 3172 3171 3171 3170 3169 3168 3167 3166 3165 3164 3162 3161 3160 3159 3158 3157 3156 3155 3154 3153 3153 3153 3153 3151 3150 3148 3146 3145 3144 3142 3141 3140 3140 3139 3136 3135 3133 3132 3131 3130 3130 3129 3129 3129 3128 3128 3128 3128 3127 3127 3127 3127 3127 3127 3127 3127 3127
3176 3175 3175 3176 3176 3176 3176 3176 3176 3177 3177 3177 3177 3177 3177 3177 3177 3177 3177 3177 3176 3176 3175 3174 3173 3173 3173 3172 3172 3171 3171 3170 3169 3168 3167 3165 3164 3163 3162 3160 3159 3158 3157 3156 3154 3153 3152 3152 3151 3151 3151 3150 3149 3147 3145 3144 3143 3141 3140 3139 3139 3137 3135 3134 3132 3131 3130 3129 3128 3127 3126 3126 3126 3126 3126 3126 3125 3125 3125 3125 3125 3125 3125 3125 3125
3175 3175 3175 3175 3175 3175 3175 3176 3176 3176 3176 3176 3176 3176 3176 3176 3177 3177 3176 3176 3176 3175 3174 3173 3173 3172 3172 3172 3171 3170 3170 3169 3168 3167 3165 3164 3163 3161 3160 3159 3157 3156 3155 3154 3153 3152 3151 3150 3149 3149 3148 3148 3147 3145 3143 3143 3141 3140 3139 3138 3137 3135 3133 3132 3131 3130 3129 3127 3126 3125 3124 3124 3123 3123 3123 3123 3123 3123 3123 3123 3123 3123 3123 3124 3124
3175 3175 3175 3175 3175 3175 3175 3175 3176 3176 3176 3176 3176 3176 3176 3176 3176 3176 3176 3176 3175 3174 3173 3172 3172 3172 3171 3171 3170 3169 3168 3167 3166 3165 3164 3162 3161 3160 3159 3157 3156 3155 3154 3152 3151 3150 3149 3148 3148 3147 3146 3145 3145 3143 3142 3141 3140 3138 3138 3136 3135 3134 3132 3130 3129 3128 3127 3126 3124 3123 3122 3122 3121 3121 3121 3121 3121 3121 3121 3121 3121 3121 3121 3122 3122
3175 3175 3174 3175 3175 3175 3175 3175 3175 3176 3176 3176 3176 3176 3175 3175 3175 3175 3175 3175 3174 3173 3172 3171 3171 3171 3170 3169 3169 3168 3167 3166 3165 3163 3162 3161 3160 3159 3157 3156 3155 3154 3153 3151 3150 3148 3147 3146 3145 3145 3144 3143 3142 3141 3140 3139 3138 3137 3135 3134 3133 3132 3130 3129 3127 3126 3126 3125 3123 3121 3120 3120 3119 3119 3118 3118 3118 3118 3118 3118 3118 3119 3119 3120 3120
3175 3175 3174 3174 3175 3175 3175 3175 3175 3175 3175 3175 3175 3175 3175 3175 3174 3174 3174 3174 3173 3173 3172 3171 3170 3170 3170 3169 3168 3167 3166 3165 3164 3163 3162 3161 3159 3158 3156 3155 3154 3152 3151 3150 3148 3147 3145 3144 3143 3142 3141 3140 3139 3139 3138 3137 3136 3134 3133 3132 3131 3130 3128 3126 3125 3124 3123 3122 3121 3120 3119 3117 3117 3117 3116 3116 3116 3115 3116 3115 3116 3116 3117 3117 3118
3175 3175 3174 3174 3174 3175 3175 3175 3175 3175 3175 3175 3175 3175 3174 3174 3174 3174 3173 3173 3173 3172 3172 3171 3170 3170 3169 3169 3168 3167 3166 3165 3164 3162 3161 3160 3158 3156 3155 3153 3152 3151 3149 3148 3147 3146 3144 3142 3141 3140 3139 3138 3137 3136 3135 3134 3133 3132 3131 3130 3129 3128 3126 3124 3123 3122 3121 3120 3119 3118 3117 3116 3116 3115 3114 3114 3114 3113 3113 3113 3113 3113 3114 3115 3115
3174 3174 3174 3174 3174 3175 3175 3175 3175 3175 3174 3174 3174 3174 3174 3174 3174 3173 3173 3173 3173 3172 3171 3170 3170 3170 3169 3169 3168 3167 3166 3164 3163 3161 3160 3158 3157 3155 3153 3152 3150 3149 3147 3146 3145 3144 3143 3141 3139 3137 3136 3135 3134 3133 3132 3131 3130 3129 3128 3127 3126 3125 3124 3122 3120 3119 3118 3117 3116 3116 3115 3115 3114 3114 3113 3112 3112 3111 3111 3111 3111 3111 3111 3112 3112
3174 3174 3174 3173 3174 3174 3174 3175 3174 3174 3174 3173 3173 3173 3173 3173 3173 3173 3173 3173 3172 3172 3171 3170 3169 3169 3168 3168 3167 3166 3164 3163 3162 3160 3159 3157 3155 3153 3152 3150 3148 3147 3145 3144 3142 3141 3141 3139 3137 3135 3133 3132 3131 3129 3128 3127 3127 3126 3125 3124 3123 3122 3121 3119 3118 3116 3115 3114 3114 3113 3113 3112 3112 3111 3111 3110 3109 3108 3108 3109 3109 3108 3109 3109 3110
3173 3173 3173 3173 3174 3174 3174 3174 3174 3174 3173 3173 3173 3173 3173 3173 3173 3173 3173 3173 3172 3172 3170 3169 3169 3168 3168 3167 3166 3165 3164 3162 3160 3159 3157 3156 3154 3152 3150 3148 3146 3145 3143 3141 3140 3138 3138 3137 3135 3133 3131 3129 3128 3126 3125 3124 3123 3122 3122 3120 3119 3118 3117 3116 3115 3114 3112 3111 3110 3110 3110 3109 3109 3109 3108 3108 3107 3106 3105 3105 3106 3106 3106 3106 3107
3173 3173 3173 3173 3173 3174 3173 3173 3173 3173 3173 3173 3173 3173 3173 3173 3173 3172 3172 3172 3172 3171 3170 3169 3168 3168 3167 3166 3165 3164 3162 3161 3159 3157 3155 3154 3152 3150 3148 3146 3145 3143 3141 3139 3137 3136 3135 3134 3132 3130 3128 3127 3125 3123 3122 3121 3119 3118 3118 3117 3116 3115 3114 3113 3111 3111 3109 3107 3106 3106 3106 3106 3106 3106 3105 3105 3104 3103 3102 3102 3102 3102 3103 3103 3104
3172 3172 3173 3173 3173 3173 3173 3172 3172 3173 3173 3173 3173 3173 3172 3172 3172 3172 3172 3172 3171 3171 3170 3168 3167 3167 3166 3165 3164 3162 3161 3160 3158 3156 3154 3152 3150 3148 3147 3145 3143 3141 3139 3137 3135 3133 3132 3131 3129 3128 3126 3124 3122 3120 3119 3117 3116 3115 3114 3113 3112 3111 3110 3109 3108 3107 3106 3104 3103 3102 3103 3103 3102 3102 3102 3101 3101 3100 3099 3098 3098 3099 3099 3100 3101
3172 3172 3172 3172 3172 3172 3172 3172 3172 3172 3173 3173 3173 3172 3172 3172 3171 3171 3171 3171 3170 3170 3169 3168 3167 3166 3164 3163 3162 3161 3159 3158 3156 3154 3152 3150 3149 3146 3145 3143 3141 3139 3137 3135 3133 3131 3130 3128 3126 3125 3123 3121 3119 3117 3116 3114 3113 3111 3110 3109 3108 3107 3106 3105 3104 3103 3102 3101 3100 3099 3098 3099 3099 3098 3098 3098 3097 3096 3095 3095 3095 3095 3096 3097 3098
3171 3171 3171 3172 3172 3172 3172 3172 3172 3172 3172 3172 3172 3172 3171 3171 3170 3170 3170 3170 3169 3169 3168 3167 3166 3165 3164 3162 3161 3160 3158 3156 3154 3152 3150 3149 3147 3145 3143 3141 3139 3137 3135 3133 3131 3129 3127 3125 3124 3122 3120 3118 3116 3114 3112 3111 3109 3108 3106 3105 3104 3103 3102 3101 3100 3099 3099 3097 3096 3095 3095 3094 3094 3094 3094 3094 3093 3092 3091 3091 3092 3092 3093 3094 3095
3170 3170 3171 3171 3171 3172 3172 3172 3172 3172 3172 3172 3171 3171 3171 3170 3170 3169 3169 3168 3168 3167 3167 3166 3165 3164 3162 3161 3160 3159 3157 3155 3153 3151 3149 3147 3145 3143 3141 3139 3137 3135 3133 3131 3129 3127 3125 3123 3121 3119 3117 3115 3113 3111 3109 3107 3106 3104 3103 3101 3101 3099 3098 3097 3096 3095 3094 3094 3093 3092 3091 3090 3090 3090 3090 3090 3090 3088 3087 3087 3089 3089 3089 3090 3092
3170 3170 3170 3171 3171 3171 3171 3171 3171 3171 3171 3171 3171 3170 3170 3169 3169 3168 3167 3167 3166 3166 3165 3164 3163 3162 3161 3160 3159 3157 3156 3154 3153 3151 3148 3145 3143 3141 3139 3137 3135 3133 3131 3129 3126 3125 3123 3121 3119 3117 3114 3112 3110 3108 3106 3104 3102 3100 3099 3097 3096 3095 3094 3093 3092 3091 3090 3089 3089 3088 3087 3087 3086 3086 3086 3086 3086 3085 3085 3085 3086 3086 3086 3087 3088
3169 3169 3170 3170 3171 3171 3171 3171 3171 3171 3170 3170 3170 3170 3169 3168 3167 3166 3166 3165 3164 3164 3163 3162 3161 3161 3159 3158 3157 3155 3154 3153 3151 3150 3148 3145 3142 3139 3136 3134 3133 3131 3129 3127 3125 3123 3120 3118 3116 3114 3112 3109 3107 3105 3103 3101 3098 3096 3095 3093 3091 3091 3090 3089 3088 3087 3086 3085 3084 3084 3083 3082 3082 3082 3082 3082 3082 3082 3082 3082 3082 3083 3083 3083 3084
3168 3169 3169 3169 3170 3170 3170 3170 3170 3170 3169 3169 3169 3168 3167 3166 3165 3165 3164 3163 3162 3162 3161 3160 3160 3159 3157 3156 3155 3154 3152 3151 3149 3148 3146 3145 3143 3140 3136 3132 3130 3129 3128 3125 3123 3121 3119 3117 3114 3112 3110 3107 3104 3102 3100 3097 3095 3093 3091 3090 3088 3086 3085 3084 3083 3082 3082 3081 3080 3079 3079 3078 3078 3078 3077 3077 3077 3078 3078 3078 3079 3079 3079 3079 3080
3168 3168 3168 3169 3169 3169 3169 3169 3169 3169 3168 3168 3167 3166 3165 3165 3164 3163 3162 3161 3161 3160 3159 3158 3157 3156 3155 3154 3153 3152 3150 3149 3147 3145 3144 3142 3141 3140 3138 3134 3131 3128 3126 3124 3121 3119 3117 3115 3113 3110 3107 3105 3102 3099 3097 3094 3092 3090 3088 3086 3084 3083 3081 3080 3079 3078 3077 3076 3075 3074 3074 3074 3073 3073 3073 3073 3072 3073 3073 3074 3075 3075 3075 3076 3077
3167 3168 3168 3168 3168 3168 3168 3168 3168 3167 3167 3166 3166 3165 3164 3163 3162 3161 3160 3160 3159 3158 3157 3156 3156 3155 3153 3152 3151 3149 3148 3146 3145 3143 3142 3140 3138 3137 3136 3134 3131 3128 3125 3123 3120 3117 3114 3112 3110 3107 3105 3102 3099 3097 3094 3091 3089 3086 3084 3082 3080 3079 3077 3075 3074 3073 3072 3071 3071 3070 3069 3069 3069 3068 3068 3068 3068 3068 3069 3069 3070 3071 3072 3073 3074
3167 3167 3167 3167 3167 3167 3167 3167 3166 3166 3165 3164 3164 3163 3162 3161 3161 3160 3159 3158 3157 3156 3155 3155 3154 3153 3152 3151 3149 3148 3146 3145 3143 3141 3140 3138 3136 3135 3133 3131 3128 3126 3123 3121 3118 3115 3112 3110 3107 3104 3102 3099 3096 3093 3091 3088 3086 3083 3081 3078 3076 3074 3073 3071 3069 3068 3067 3066 3066 3065 3064 3064 3064 3063 3063 3063 3063 3063 3064 3064 3065 3066 3067 3068 3069
3166 3166 3166 3166 3166 3165 3165 3165 3164 3164 3163 3163 3162 3161 3161 3160 3159 3158 3157 3156 3155 3154 3154 3153 3152 3151 3150 3149 3147 3146 3144 3143 3141 3139 3138 3136 3134 3132 3131 3129 3127 3124 3121 3118 3116 3113 3110 3107 3105 3102 3099 3096 3093 3091 3088 3085 3082 3080 3078 3075 3072 3070 3068 3066 3064 3063 3062 3061 3061 3060 3060 3059 3059 3058 3058 3057 3058 3058 3059 3059 3060 3061 3062 3063 3064
3164 3164 3164 3164 3164 3164 3163 3163 3163 3162 3162 3161 3160 3160 3159 3158 3157 3156 3155 3154 3153 3153 3152 3151 3150 3149 3148 3147 3145 3144 3142 3140 3139 3137 3135 3134 3132 3131 3129 3127 3125 3123 3120 3117 3114 3111 3108 3105 3102 3099 3096 3093 3091 3088 3085 3082 3079 3076 3074 3071 3069 3066 3064 3061 3059 3058 3056 3056 3055 3055 3054 3053 3053 3053 3053 3052 3052 3053 3053 3054 3054 3055 3056 3058 3059
3163 3163 3163 3162 3162 3162 3162 3161 3161 3160 3160 3159 3159 3158 3157 3156 3155 3154 3153 3152 3152 3151 3150 3149 3148 3147 3146 3144 3143 3141 3140 3138 3137 3135 3133 3132 3130 3129 3127 3125 3123 3121 3118 3114 3111 3109 3107 3103 3100 3097 3094 3091 3088 3085 3083 3079 3076 3073 3070 3067 3065 3062 3060 3057 3054 3052 3051 3050 3049 3049 3048 3048 3047 3047 3047 3046 3046 3047 3048 3048 3049 3050 3051 3052 3053
3161 3161 3161 3161 3160 3160 3160 3160 3159 3159 3158 3157 3157 3156 3155 3154 3153 3152 3151 3150 3150 3149 3148 3147 3146 3145 3143 3142 3140 3139 3138 3136 3135 3133 3131 3129 3127 3125 3123 3122 3120 3119 3117 3114 3110 3106 3104 3102 3099 3095 3092 3088 3085 3083 3080 3076 3073 3070 3067 3063 3060 3058 3055 3052 3050 3047 3045 3043 3043 3042 3042 3042 3042 3041 3041 3041 3040 3040 3041 3042 3043 3044 3046 3047 3048
3160 3159 3159 3158 3158 3158 3158 3158 3158 3157 3157 3156 3155 3154 3153 3152 3152 3151 3150 3149 3148 3147 3146 3145 3144 3143 3141 3140 3138 3137 3135 3134 3133 3131 3128 3126 3124 3122 3119 3117 3115 3114 3114 3112 3109 3105 3102 3098 3096 3094 3090 3086 3082 3080 3077 3074 3070 3067 3063 3059 3056 3053 3050 3047 3044 3042 3039 3037 3036 3035 3035 3034 3035 3035 3035 3035 3035 3034 3035 3036 3037 3038 3040 3041 3042
3158 3157 3157 3156 3156 3156 3156 3157 3156 3156 3155 3154 3153 3153 3152 3151 3150 3149 3148 3147 3147 3146 3145 3143 3142 3140 3139 3138 3136 3135 3134 3132 3130 3128 3126 3123 3121 3119 3116 3114 3111 3109 3108 3107 3105 3102 3099 3095 3091 3089 3087 3084 3080 3077 3074 3071 3067 3063 3060 3056 3052 3048 3045 3042 3039 3036 3033 3030 3028 3027 3027 3027 3027 3028 3028 3028 3029 3028 3028 3029 3031 3032 3034 3036 3036
3155 3155 3154 3154 3154 3154 3155 3155 3154 3154 3153 3153 3152 3151 3151 3150 3149 3148 3147 3146 3145 3144 3143 3142 3140 3139 3137 3136 3135 3133 3132 3130 3128 3126 3123 3121 3119 3116 3114 3111 3109 3106 3103 3102 3101 3097 3094 3092 3088 3084 3082 3080 3077 3074 3071 3067 3064 3060 3056 3051 3047 3043 3040 3037 3034 3031 3028 3025 3022 3020 3019 3019 3019 3019 3021 3021 3022 3023 3022 3022 3024 3026 3027 3029 3031
3153 3153 3153 3153 3153 3153 3153 3153 3153 3152 3152 3151 3151 3150 3149 3149 3148 3147 3146 3145 3144 3143 3142 3140 3139 3138 3136 3135 3133 3132 3130 3128 3126 3124 3122 3120 3117 3115 3112 3109 3107 3104 3101 3099 3098 3095 3091 3088 3086 3082 3077 3075 3072 3069 3066 3064 3060 3056 3052 3047 3043 3039 3035 3032 3029 3026 3023 3020 3017 3014 3012 3011 3011 3011 3012 3014 3015 3016 3016 3016 3017 3019 3021 3023 3024
3151 3151 3151 3151 3151 3151 3151 3151 3151 3151 3151 3150 3149 3149 3148 3147 3146 3145 3144 3144 3143 3142 3140 3139 3138 3136 3135 3134 3132 3130 3129 3127 3125 3123 3121 3118 3116 3114 3111 3108 3105 3102 3100 3097 3095 3094 3091 3086 3083 3079 3075 3071 3068 3064 3061 3059 3056 3052 3048 3044 3039 3035 3031 3028 3025 3022 3018 3015 3012 3009 3006 3004 3003 3002 3003 3005 3007 3008 3009 3010 3010 3012 3014 3016 3018
3149 3149 3149 3149 3149 3150 3150 3150 3150 3150 3149 3149 3148 3148 3147 3146 3145 3144 3143 3142 3142 3140 3139 3138 3136 3135 3134 3133 3131 3129 3127 3126 3124 3122 3120 3117 3115 3113 3110 3107 3104 3101 3098 3095 3093 3091 3089 3086 3081 3077 3073 3069 3065 3061 3056 3054 3051 3047 3044 3040 3036 3031 3027 3023 3020 3017 3013 3010 3007 3004 3001 2998 2996 2995 2995 2996 2999 3000 3002 3003 3004 3004 3007 3009 3011
3147 3148 3148 3148 3148 3148 3148 3148 3149 3148 3148 3148 3147 3146 3146 3145 3144 3143 3142 3141 3140 3139 3138 3136 3135 3134 3133 3132 3130 3128 3127 3125 3123 3121 3119 3117 3114 3112 3109 3106 3104 3100 3097 3094 3091 3088 3086 3083 3079 3075 3071 3066 3062 3058 3053 3049 3046 3042 3039 3035 3032 3027 3023 3018 3015 3011 3008 3004 3001 2998 2995 2992 2989 2988 2988 2988 2990 2992 2994 2995 2997 2997 2999 3001 3004
3146 3146 3146 3146 3147 3147 3147 3147 3147 3147 3147 3146 3146 3145 3145 3144 3143 3142 3141 3140 3139 3138 3136 3135 3134 3133 3132 3131 3129 3127 3126 3124 3122 3120 3118 3116 3113 3111 3108 3106 3103 3100 3096 3093 3089 3085 3082 3079 3076 3072 3068 3063 3059 3055 3050 3045 3041 3037 3033 3030 3026 3023 3018 3014 3010 3006 3002 2997 2994 2991 2988 2986 2983 2982 2981 2981 2981 2984 2986 2987 2989 2990 2991 2993 2996
3144 3145 3145 3145 3145 3145 3146 3146 3146 3146 3145 3145 3145 3144 3144 3143 3142 3141 3140 3139 3138 3136 3135 3134 3133 3132 3131 3130 3128 3127 3125 3123 3121 3119 3116 3114 3112 3110 3107 3105 3102 3099 3096 3092 3088 3084 3080 3076 3073 3069 3065 3060 3056 3052 3047 3042 3038 3034 3029 3025 3021 3017 3014 3010 3005 3000 2996 2991 2987 2984 2982 2980 2977 2975 2975 2974 2974 2976 2978 2980 2981 2983 2984 2986 2988
3143 3143 3143 3144 3144 3144 3144 3144 3144 3144 3144 3144 3144 3143 3143 3142 3141 3140 3139 3138 3136 3135 3135 3133 3132 3131 3130 3129 3127 3126 3124 3122 3120 3118 3115 3113 3111 3109 3106 3104 3101 3097 3094 3091 3087 3083 3079 3074 3070 3067 3063 3058 3054 3049 3044 3037 3033 3029 3025 3021 3016 3012 3009 3005 3001 2994 2988 2983 2978 2976 2975 2973 2971 2969 2968 2968 2968 2968 2970 2972 2974 2976 2977 2979 2980
3141 3142 3142 3142 3143 3143 3143 3143 3143 3143 3143 3143 3143 3142 3142 3141 3139 3138 3137 3136 3135 3135 3134 3133 3132 3131 3130 3128 3127 3125 3123 3121 3119 3117 3115 3112 3110 3107 3105 3102 3099 3096 3092 3089 3086 3082 3077 3073 3068 3065 3061 3056 3050 3046 3041 3035 3028 3023 3019 3015 3012 3008 3003 2999 2994 2988 2981 2976 2971 2968 2968 2967 2965 2963 2962 2962 2962 2962 2963 2965 2967 2969 2970 2972 2973
3140 3140 3140 3141 3141 3141 3142 3142 3142 3142 3142 3142 3141 3141 3140 3139 3138 3137 3136 3135 3135 3134 3133 3132 3131 3130 3129 3127 3126 3124 3122 3120 3118 3116 3114 3111 3109 3106 3103 3100 3097 3094 3090 3087 3084 3080 3076 3071 3067 3063 3059 3054 3048 3042 3038 3032 3026 3020 3013 3007 3003 3001 2997 2992 2986 2980 2974 2968 2965 2963 2962 2961 2959 2958 2957 2956 2956 2956 2956 2958 2960 2962 2964 2965 2967
3138 3138 3139 3140 3140 3140 3140 3140 3140 3141 3141 3141 3140 3140 3139 3138 3137 3136 3135 3134 3134 3133 3132 3131 3130 3129 3128 3127 3125 3123 3121 3118 3116 3114 3112 3110 3107 3104 3101 3098 3095 3092 3088 3085 3081 3078 3074 3070 3065 3061 3056 3051 3045 3040 3034 3028 3022 3016 3010 3003 2998 2994 2989 2985 2979 2972 2966 2962 2961 2960 2958 2956 2954 2953 2952 2951 2950 2949 2950 2951 2954 2956 2958 2959 2961
3136 3137 3137 3138 3138 3138 3139 3139 3139 3139 3139 3139 3139 3139 3138 3137 3136 3135 3134 3134 3133 3132 3131 3130 3129 3128 3127 3126 3124 3122 3119 3117 3115 3113 3111 3108 3105 3102 3099 3096 3092 3090 3086 3083 3079 3076 3072 3068 3063 3058 3054 3049 3042 3036 3029 3023 3017 3011 3007 3001 2995 2989 2982 2979 2976 2970 2962 2959 2959 2959 2956 2952 2950 2949 2947 2946 2945 2943 2944 2945 2946 2949 2951 2953 2955
3135 3135 3136 3136 3137 3137 3137 3137 3138 3138 3138 3138 3138 3137 3136 3136 3135 3134 3133 3133 3132 3132 3131 3130 3129 3128 3126 3125 3123 3121 3119 3117 3114 3112 3110 3107 3103 3100 3097 3094 3091 3087 3084 3081 3078 3074 3070 3066 3061 3055 3050 3046 3040 3033 3026 3021 3016 3010 3004 2997 2990 2985 2978 2974 2973 2971 2964 2959 2958 2958 2955 2949 2946 2946 2944 2941 2940 2939 2938 2939 2940 2941 2944 2946 2948
3133 3134 3134 3134 3135 3135 3135 3136 3136 3136 3137 3136 3136 3136 3135 3134 3134 3133 3132 3132 3131 3131 3130 3129 3128 3127 3126 3124 3122 3120 3118 3116 3114 3111 3109 3106 3103 3100 3097 3094 3090 3086 3083 3079 3076 3073 3069 3065 3060 3054 3048 3043 3038 3031 3025 3019 3014 3008 3002 2995 2989 2983 2976 2970 2968 2967 2963 2958 2955 2955 2953 2948 2943 2942 2941 2937 2935 2934 2933 2933 2933 2934 2936 2939 2941
3131 3132 3132 3133 3133 3134 3134 3134 3135 3135 3135 3135 3134 3134 3134 3133 3132 3132 3131 3131 3131 3130 3129 3128 3127 3126 3125 3123 3121 3120 3118 3116 3113 3111 3108 3105 3102 3100 3097 3094 3091 3087 3083 3079 3075 3071 3067 3063 3059 3053 3047 3042 3036 3030 3023 3016 3011 3005 3000 2996 2989 2983 2977 2971 2966 2962 2957 2953 2949 2949 2948 2945 2939 2937 2937 2934 2931 2930 2928 2927 2927 2927 2929 2931 2934
3129 3130 3130 3131 3131 3132 3132 3132 3133 3133 3133 3133 3133 3133 3132 3132 3131 3131 3130 3130 3129 3129 3128 3127 3126 3125 3124 3122 3120 3119 3117 3115 3113 3110 3108 3105 3102 3100 3097 3094 3091 3088 3085 3081 3076 3072 3067 3062 3058 3053 3047 3041 3035 3030 3023 3016 3009 3004 2998 2993 2988 2982 2977 2972 2966 2960 2954 2950 2946 2943 2943 2940 2935 2933 2932 2930 2927 2925 2923 2921 2920 2920 2921 2924 2926
3127 3128 3128 3129 3129 3130 3130 3131 3131 3131 3131 3131 3131 3131 3131 3130 3130 3130 3129 3129 3128 3128 3127 3126 3125 3124 3123 3121 3119 3118 3116 3114 3112 3109 3107 3105 3103 3100 3097 3094 3091 3088 3085 3082 3078 3073 3068 3063 3058 3054 3048 3043 3036 3030 3024 3017 3011 3004 2998 2991 2986 2981 2978 2974 2968 2962 2956 2951 2947 2943 2941 2937 2931 2928 2928 2926 2924 2922 2919 2916 2915 2914 2915 2916 2918
3125 3126 3127 3127 3127 3128 3128 3129 3129 3130 3130 3130 3130 3130 3129 3129 3129 3128 3128 3128 3127 3127 3126 3126 3124 3123 3122 3120 3119 3117 3115 3113 3111 3109 3107 3105 3102 3100 3097 3094 3091 3088 3085 3081 3077 3073 3068 3064 3059 3054 3049 3044 3039 3032 3026 3019 3013 3007 3001 2996 2989 2983 2978 2975 2970 2963 2958 2953 2948 2943 2940 2936 2928 2923 2923 2921 2919 2918 2915 2911 2909 2909 2909 2910 2912
3123 3124 3125 3125 3125 3126 3126 3127 3127 3128 3128 3128 3128 3128 3128 3128 3128 3127 3127 3127 3127 3126 3125 3124 3123 3122 3121 3119 3118 3116 3114 3112 3110 3108 3106 3104 3101 3099 3097 3094 3091 3089 3085 3082 3077 3073 3069 3065 3061 3056 3051 3046 3041 3035 3029 3021 3014 3008 3003 2997 2991 2983 2976 2970 2965 2961 2957 2952 2946 2940 2936 2932 2926 2920 2918 2917 2914 2912 2911 2907 2905 2905 2905 2905 2906
3121 3121 3122 3123 3123 3124 3124 3125 3126 3126 3127 3127 3127 3127 3127 3127 3126 3126 3126 3126 3126 3125 3124 3123 3122 3121 3120 3118 3117 3115 3113 3111 3109 3107 3105 3103 3101 3098 3096 3094 3091 3088 3086 3083 3079 3074 3070 3067 3062 3058 3053 3049 3043 3038 3031 3024 3016 3008 3001 2993 2986 2980 2973 2965 2960 2956 2953 2947 2942 2936 2931 2927 2923 2918 2915 2914 2911 2907 2905 2903 2901 2900 2900 2901 2901
3118 3119 3120 3120 3121 3122 3122 3123 3124 3125 3125 3125 3125 3125 3125 3125 3125 3125 3125 3125 3124 3124 3123 3122 3121 3120 3119 3117 3116 3114 3112 3110 3108 3106 3104 3102 3100 3097 3095 3093 3090 3087 3084 3081 3078 3075 3071 3067 3064 3060 3055 3050 3045 3038 3032 3025 3017 3009 3001 2992 2985 2979 2972 2964 2958 2953 2949 2944 2938 2932 2927 2922 2919 2915 2911 2909 2909 2906 2902 2898 2896 2895 2895 2896 2897
3115 3116 3117 3118 3119 3120 3120 3121 3122 3123 3124 3124 3124 3124 3124 3124 3124 3124 3124 3124 3123 3123 3122 3121 3120 3119 3117 3116 3114 3112 3111 3109 3107 3105 3103 3100 3098 3096 3093 3091 3089 3086 3083 3079 3075 3073 3070 3066 3062 3058 3054 3049 3044 3038 3032 3026 3019 3011 3003 2995 2986 2979 2972 2966 2959 2952 2946 2941 2935 2929 2924 2919 2916 2912 2907 2902 2901 2900 2899 2895 2892 2890 2890 2890 2892